Location: Camerons Lookout
(40.9833°S, 175.9333°E)
Time: 20:02:07
(UTC+00:00)

SL-8 R/B - Pass Details

Date: 14 January 2026
Orbit: 646 x 656 km, 48.4° (Epoch: 13 February)

Event Time Altitude Azimuth Distance (km) Brightness Sun altitude
Rises 09:26:31 0° 291° (WNW) 2,986 7.4 -15.2°
Reaches altitude 10° 09:28:52 10° 288° (WNW) 2,079 6.6 -15.5°
Maximum altitude 09:33:39 66° 206° (SSW) 727 4.1 -16.1°
Drops below altitude 10° 09:38:28 10° 122° (ESE) 2,092 6.2 -16.7°
Sets 09:40:51 0° 119° (ESE) 3,006 7.0 -17.0°
